Weather History for Port Clinton Carl R Keller Fi, OH

Change the Weather History Date:

Saturday, April 6, 2013

  Actual Average (KTOL) Record (KTOL)
Temperature  
Mean Temperature 42 °F 46 °F  
Max Temperature 55 °F 56 °F 83 °F (1929)
Min Temperature 30 °F 35 °F 16 °F (1982)
Degree Days  
Heating Degree Days 22 19  
Month to date heating degree days 121  
Since 1 July heating degree days 5547  
Cooling Degree Days 0 0  
Month to date cooling degree days 0  
Year to date cooling degree days 0  
Moisture  
Dew Point 19 °F    
Average Humidity 39    
Maximum Humidity 69    
Minimum Humidity 26    
Precipitation  
Precipitation 0.00 in 0.10 in 0.75 in (1978)
Month to date precipitation 0.60  
Year to date precipitation 7.20  
Snow  
Snow - 0.10 in - ()
Month to date snowfall 0.5  
Since 1 July snowfall 36.7  
Snow Depth -    
Sea Level Pressure  
Sea Level Pressure 30.11 in    
Wind  
Wind Speed 10 mph ()    
Max Wind Speed 18 mph    
Max Gust Speed -    
Visibility 10.0 miles    
Events      
T = Trace of Precipitation, MM = Missing Value Source: Averaged Metar Reports

Daily Weather History Graph

Daily Weather History Graph

Search for Another Location

Airport:

Trip Planner

Search our weather history database for the weather conditions in past years. The results will help you decide how hot, cold, wet, or windy it might be!

Date:

Astronomy

Apr. 06, 2013 Rise Set
Actual Time 7:05 AM EDT 8:02 PM EDT
Civil Twilight 6:37 AM EDT 8:30 PM EDT
Nautical Twilight 6:04 AM EDT 9:04 PM EDT
Astronomical Twilight 5:29 AM EDT 9:39 PM EDT
Moon 4:51 AM EDT (4/6) 4:27 PM EDT (4/6)
Length of Visible Light 13h 53m
Length of Day
12h 56m
Waning Crescent, 15% of the Moon is Illuminated
Apr 6
Waning Crescent
Apr 10
New
Apr 18
First Quarter
Apr 25
Full
May 2
Last Quarter

Hourly Weather History & Observations

Time (EDT) Temp. Windchill Dew Point Humidity Pressure Visibility Wind Dir Wind Speed Gust Speed Precip Events Conditions
12:14 AM 30.2 °F 22.6 °F 21.2 °F 69% 30.20 in 10.0 mi ESE 8.1 mph - N/A   Clear
12:33 AM 30.2 °F 23.4 °F 21.2 °F 69% 30.21 in 10.0 mi ESE 6.9 mph - N/A   Clear
12:54 AM 31.1 °F 23.7 °F 19.0 °F 61% 30.21 in 10.0 mi ESE 8.1 mph - N/A   Clear
1:13 AM 32.0 °F 24.2 °F 19.4 °F 60% 30.20 in 10.0 mi ESE 9.2 mph - N/A   Clear
1:33 AM 32.0 °F 24.2 °F 19.4 °F 60% 30.19 in 10.0 mi ESE 9.2 mph - N/A   Clear
1:54 AM 32.0 °F 25.6 °F 19.4 °F 60% 30.21 in 10.0 mi ESE 6.9 mph - N/A   Clear
2:13 AM 32.0 °F 24.8 °F 19.4 °F 60% 30.21 in 10.0 mi SE 8.1 mph - N/A   Clear
2:33 AM 30.2 °F 24.3 °F 19.4 °F 64% 30.21 in 10.0 mi SE 5.8 mph - N/A   Clear
2:54 AM 31.1 °F 24.5 °F 20.1 °F 64% 30.20 in 10.0 mi SE 6.9 mph - N/A   Clear
3:13 AM 30.2 °F 25.4 °F 19.4 °F 64% 30.21 in 10.0 mi SE 4.6 mph - N/A   Mostly Cloudy
3:34 AM 30.2 °F 25.4 °F 19.4 °F 64% 30.21 in 10.0 mi ESE 4.6 mph - N/A   Overcast
3:54 AM 32.0 °F 27.5 °F 21.2 °F 64% 30.21 in 10.0 mi ESE 4.6 mph - N/A   Overcast
4:13 AM 33.8 °F 28.6 °F 21.2 °F 60% 30.21 in 10.0 mi ESE 5.8 mph - N/A   Overcast
4:34 AM 33.8 °F 28.6 °F 21.2 °F 60% 30.21 in 10.0 mi ESE 5.8 mph - N/A   Overcast
4:54 AM 33.8 °F 27.0 °F 19.4 °F 56% 30.20 in 10.0 mi ESE 8.1 mph - N/A   Overcast
5:13 AM 33.8 °F 27.7 °F 19.4 °F 56% 30.21 in 10.0 mi ESE 6.9 mph - N/A   Overcast
5:34 AM 33.8 °F 26.4 °F 17.6 °F 52% 30.21 in 10.0 mi ESE 9.2 mph - N/A   Overcast
5:53 AM 34.0 °F 27.2 °F 17.1 °F 50% 30.22 in 10.0 mi ESE 8.1 mph - N/A   Overcast
6:13 AM 33.8 °F 26.4 °F 17.6 °F 52% 30.24 in 10.0 mi ESE 9.2 mph - N/A   Overcast
6:34 AM 33.8 °F 24.8 °F 15.8 °F 48% 30.23 in 10.0 mi ESE 12.7 mph - N/A   Overcast
6:53 AM 33.8 °F 25.8 °F 15.8 °F 48% 30.24 in 10.0 mi ESE 10.4 mph - N/A   Overcast
7:13 AM 33.8 °F 24.8 °F 15.8 °F 48% 30.23 in 10.0 mi ESE 12.7 mph - N/A   Overcast
7:34 AM 33.8 °F 25.8 °F 15.8 °F 48% 30.24 in 10.0 mi SE 10.4 mph - N/A   Mostly Cloudy
7:53 AM 33.8 °F 24.8 °F 12.2 °F 41% 30.25 in 10.0 mi SE 12.7 mph - N/A   Mostly Cloudy
8:13 AM 33.8 °F 23.9 °F 12.2 °F 41% 30.25 in 10.0 mi ESE 15.0 mph - N/A   Overcast
8:34 AM 35.6 °F 26.6 °F 12.2 °F 38% 30.25 in 10.0 mi SE 13.8 mph - N/A   Overcast
8:53 AM 35.6 °F 26.2 °F 12.2 °F 38% 30.25 in 10.0 mi SE 15.0 mph - N/A   Mostly Cloudy
9:13 AM 37.4 °F 28.5 °F 12.2 °F 36% 30.24 in 10.0 mi SE 15.0 mph - N/A   Scattered Clouds
9:34 AM 37.4 °F 29.3 °F 12.2 °F 36% 30.24 in 10.0 mi SE 12.7 mph - N/A   Scattered Clouds
9:53 AM 37.4 °F 28.9 °F 12.2 °F 36% 30.24 in 10.0 mi SE 13.8 mph - N/A   Partly Cloudy
10:13 AM 39.2 °F 31.2 °F 12.2 °F 33% 30.23 in 10.0 mi SE 13.8 mph - N/A   Scattered Clouds
10:34 AM 39.2 °F 32.0 °F 12.2 °F 33% 30.23 in 10.0 mi SSE 11.5 mph - N/A   Mostly Cloudy
10:53 AM 41.0 °F 34.3 °F 14.0 °F 33% 30.22 in 10.0 mi SE 11.5 mph - N/A   Mostly Cloudy
11:14 AM 44.6 °F 38.1 °F 15.8 °F 31% 30.21 in 10.0 mi SE 13.8 mph - N/A   Scattered Clouds
11:33 AM 44.6 °F 38.4 °F 15.8 °F 31% 30.20 in 10.0 mi SE 12.7 mph - N/A   Clear
11:53 AM 46.9 °F - 17.1 °F 30% 30.20 in 10.0 mi SSE 11.5 mph - N/A   Clear
12:14 PM 48.2 °F - 19.4 °F 32% 30.19 in 10.0 mi South 15.0 mph - N/A   Clear
12:33 PM 50.0 °F - 19.4 °F 30% 30.18 in 10.0 mi SSE 13.8 mph - N/A   Clear
12:53 PM 48.9 °F - 20.1 °F 32% 30.17 in 10.0 mi South 13.8 mph - N/A   Clear
1:14 PM 51.8 °F - 19.4 °F 28% 30.16 in 10.0 mi South 11.5 mph - N/A   Clear
1:33 PM 51.8 °F - 19.4 °F 28% 30.15 in 10.0 mi South 11.5 mph - N/A   Clear
1:54 PM 50.9 °F - 19.0 °F 28% 30.14 in 10.0 mi SSE 11.5 mph - N/A   Clear
2:13 PM 51.8 °F - 19.4 °F 28% 30.13 in 10.0 mi South 10.4 mph - N/A   Clear
2:34 PM 53.6 °F - 19.4 °F 26% 30.12 in 10.0 mi South 12.7 mph - N/A   Clear
2:53 PM 52.9 °F - 19.0 °F 26% 30.11 in 10.0 mi South 11.5 mph - N/A   Clear
3:13 PM 53.6 °F - 21.2 °F 28% 30.09 in 10.0 mi South 12.7 mph - N/A   Clear
3:34 PM 53.6 °F - 21.2 °F 28% 30.08 in 10.0 mi South 12.7 mph - N/A   Clear
3:53 PM 54.0 °F - 21.0 °F 28% 30.06 in 10.0 mi South 15.0 mph - N/A   Clear
4:14 PM 53.6 °F - 19.4 °F 26% 30.05 in 10.0 mi South 15.0 mph - N/A   Partly Cloudy
4:33 PM 53.6 °F - 21.2 °F 28% 30.03 in 10.0 mi South 13.8 mph - N/A   Scattered Clouds
4:54 PM 53.6 °F - 21.2 °F 28% 30.01 in 10.0 mi South 11.5 mph - N/A   Partly Cloudy
5:14 PM 55.4 °F - 21.2 °F 26% 30.00 in 10.0 mi South 11.5 mph - N/A   Clear
5:33 PM 55.4 °F - 21.2 °F 26% 29.99 in 10.0 mi South 15.0 mph - N/A   Clear
5:54 PM 55.9 °F - 21.0 °F 26% 29.98 in 10.0 mi South 16.1 mph - N/A   Clear
6:14 PM 55.4 °F - 21.2 °F 26% 29.97 in 10.0 mi South 12.7 mph - N/A   Clear
6:34 PM 55.4 °F - 21.2 °F 26% 29.97 in 10.0 mi South 13.8 mph - N/A   Clear
6:54 PM 54.9 °F - 22.1 °F 28% 29.96 in 10.0 mi South 11.5 mph - N/A   Clear
7:13 PM 55.4 °F - 21.2 °F 26% 29.95 in 10.0 mi SSE 12.7 mph - N/A   Clear
7:34 PM 53.6 °F - 23.0 °F 30% 29.93 in 10.0 mi South 13.8 mph - N/A   Clear
7:54 PM 53.6 °F - 21.2 °F 28% 29.92 in 10.0 mi SSE 10.4 mph - N/A   Clear
8:13 PM 53.6 °F - 21.2 °F 28% 29.91 in 10.0 mi SSE 11.5 mph - N/A   Clear
8:34 PM 53.6 °F - 23.0 °F 30% 29.90 in 10.0 mi SSE 11.5 mph - N/A   Clear
8:53 PM 52.9 °F - 22.1 °F 30% 29.89 in 10.0 mi SSE 12.7 mph - N/A   Clear
9:13 PM 53.6 °F - 21.2 °F 28% 29.89 in 10.0 mi South 15.0 mph - N/A   Clear
9:34 PM 53.6 °F - 21.2 °F 28% 29.89 in 10.0 mi South 16.1 mph - N/A   Clear
9:53 PM 54.0 °F - 20.1 °F 27% 29.88 in 10.0 mi South 18.4 mph - N/A   Clear
10:14 PM 53.6 °F - 19.4 °F 26% 29.87 in 10.0 mi South 17.3 mph - N/A   Clear
10:34 PM 53.6 °F - 19.4 °F 26% 29.86 in 10.0 mi South 15.0 mph - N/A   Clear
10:53 PM 54.0 °F - 21.0 °F 28% 29.86 in 10.0 mi South 17.3 mph - N/A   Clear
11:14 PM 53.6 °F - 21.2 °F 28% 29.84 in 10.0 mi South 13.8 mph - N/A   Clear
11:34 PM 53.6 °F - 21.2 °F 28% 29.83 in 10.0 mi South 15.0 mph - N/A   Clear
11:53 PM 54.9 °F - 21.0 °F 27% 29.83 in 10.0 mi South 16.1 mph - N/A   Clear